Time,TemperatureF,DewpointF,PressureIn,WindDirection,WindDirectionDegrees,WindSpeedMPH,WindSpeedGustMPH,Humidity,HourlyPrecipIn,Conditions,Clouds,dailyrainin,SoftwareType,DateUTC
2013-07-21 00:12:00,72.4,70.0,29.92,South,182,0.0,0.0,92,0.00,,,0.00,weatherlink.com 1.10,2013-07-21 05:12:00,
2013-07-21 00:27:00,72.2,70.0,29.92,South,182,0.0,0.0,92,0.00,,,0.00,weatherlink.com 1.10,2013-07-21 05:27:00,
2013-07-21 00:42:00,72.2,70.0,29.92,South,182,0.0,0.0,93,0.00,,,0.00,weatherlink.com 1.10,2013-07-21 05:42:00,
2013-07-21 00:57:00,72.2,70.0,29.92,South,182,0.0,0.0,93,0.00,,,0.00,weatherlink.com 1.10,2013-07-21 05:57:00,
2013-07-21 01:12:00,72.1,70.0,29.92,South,182,0.0,0.0,93,0.00,,,0.00,weatherlink.com 1.10,2013-07-21 06:12:00,
2013-07-21 01:27:00,72.1,70.0,29.92,South,182,0.0,0.0,94,0.00,,,0.00,weatherlink.com 1.10,2013-07-21 06:27:00,
2013-07-21 01:42:00,72.0,70.0,29.92,South,182,0.0,0.0,94,0.00,,,0.00,weatherlink.com 1.10,2013-07-21 06:42:00,
2013-07-21 01:57:00,71.9,70.0,29.91,South,182,0.0,0.0,94,0.00,,,0.00,weatherlink.com 1.10,2013-07-21 06:57:00,
2013-07-21 02:12:00,71.9,70.0,29.91,South,182,0.0,0.0,94,0.00,,,0.00,weatherlink.com 1.10,2013-07-21 07:12:00,
2013-07-21 02:27:00,72.1,71.0,29.91,South,182,0.0,2.0,95,0.00,,,0.00,weatherlink.com 1.10,2013-07-21 07:27:00,
2013-07-21 02:42:00,72.3,71.0,29.91,South,182,0.0,1.0,95,0.00,,,0.00,weatherlink.com 1.10,2013-07-21 07:42:00,
2013-07-21 02:57:00,72.4,71.0,29.91,South,182,0.0,0.0,95,0.00,,,0.00,weatherlink.com 1.10,2013-07-21 07:57:00,
2013-07-21 03:12:00,72.5,71.0,29.91,South,182,0.0,1.0,95,0.00,,,0.00,weatherlink.com 1.10,2013-07-21 08:12:00,
2013-07-21 03:27:00,72.5,71.0,29.91,South,182,0.0,1.0,95,0.00,,,0.00,weatherlink.com 1.10,2013-07-21 08:27:00,
2013-07-21 03:42:00,72.4,71.0,29.91,South,182,0.0,0.0,95,0.00,,,0.00,weatherlink.com 1.10,2013-07-21 08:42:00,
2013-07-21 03:57:00,72.4,71.0,29.90,South,182,0.0,0.0,95,0.00,,,0.00,weatherlink.com 1.10,2013-07-21 08:57:00,
2013-07-21 04:12:00,72.3,71.0,29.91,South,182,0.0,0.0,95,0.00,,,0.00,weatherlink.com 1.10,2013-07-21 09:12:00,
2013-07-21 04:27:00,72.2,71.0,29.91,South,182,0.0,1.0,95,0.00,,,0.00,weatherlink.com 1.10,2013-07-21 09:27:00,
2013-07-21 04:42:00,72.1,71.0,29.91,South,182,0.0,0.0,95,0.00,,,0.00,weatherlink.com 1.10,2013-07-21 09:42:00,
2013-07-21 04:57:00,72.0,71.0,29.91,South,182,0.0,0.0,95,0.00,,,0.00,weatherlink.com 1.10,2013-07-21 09:57:00,
2013-07-21 05:12:00,71.9,71.0,29.91,South,182,0.0,0.0,95,0.00,,,0.00,weatherlink.com 1.10,2013-07-21 10:12:00,
2013-07-21 05:27:00,71.9,71.0,29.91,South,182,0.0,0.0,95,0.00,,,0.00,weatherlink.com 1.10,2013-07-21 10:27:00,
2013-07-21 05:42:00,71.7,71.0,29.91,South,182,0.0,0.0,96,0.00,,,0.00,weatherlink.com 1.10,2013-07-21 10:42:00,
2013-07-21 05:57:00,71.7,71.0,29.92,South,182,0.0,0.0,96,0.00,,,0.00,weatherlink.com 1.10,2013-07-21 10:57:00,
2013-07-21 06:12:00,71.6,70.0,29.92,South,182,0.0,0.0,96,0.00,,,0.00,weatherlink.com 1.10,2013-07-21 11:12:00,
2013-07-21 06:27:00,71.6,70.0,29.93,South,182,0.0,0.0,96,0.00,,,0.00,weatherlink.com 1.10,2013-07-21 11:27:00,
2013-07-21 06:42:00,71.6,70.0,29.93,South,182,0.0,0.0,96,0.00,,,0.00,weatherlink.com 1.10,2013-07-21 11:42:00,
2013-07-21 06:57:00,71.7,71.0,29.93,South,182,0.0,0.0,96,0.00,,,0.00,weatherlink.com 1.10,2013-07-21 11:57:00,
2013-07-21 07:12:00,71.9,71.0,29.93,South,182,0.0,0.0,96,0.00,,,0.00,weatherlink.com 1.10,2013-07-21 12:12:00,
2013-07-21 07:27:00,72.3,71.0,29.94,South,182,0.0,0.0,96,0.00,,,0.00,weatherlink.com 1.10,2013-07-21 12:27:00,
2013-07-21 07:42:00,73.1,72.0,29.94,South,186,0.0,1.0,97,0.00,,,0.00,weatherlink.com 1.10,2013-07-21 12:42:00,
2013-07-21 07:57:00,74.6,74.0,29.94,South,173,1.0,2.0,97,0.00,,,0.00,weatherlink.com 1.10,2013-07-21 12:57:00,
2013-07-21 08:12:00,76.1,75.0,29.94,South,173,0.0,0.0,97,0.00,,,0.00,weatherlink.com 1.10,2013-07-21 13:12:00,
2013-07-21 08:27:00,77.7,77.0,29.94,SSW,194,3.0,3.0,96,0.00,,,0.00,weatherlink.com 1.10,2013-07-21 13:27:00,
2013-07-21 08:42:00,79.6,77.0,29.94,SSE,167,0.0,2.0,92,0.00,,,0.00,weatherlink.com 1.10,2013-07-21 13:42:00,
2013-07-21 08:57:00,81.6,77.0,29.94,South,178,0.0,4.0,86,0.00,,,0.00,weatherlink.com 1.10,2013-07-21 13:57:00,
2013-07-21 09:12:00,83.0,77.0,29.95,ESE,119,0.0,5.0,83,0.00,,,0.00,weatherlink.com 1.10,2013-07-21 14:12:00,
2013-07-21 09:27:00,83.1,76.0,29.95,South,181,3.0,6.0,80,0.00,,,0.00,weatherlink.com 1.10,2013-07-21 14:27:00,
2013-07-21 09:42:00,82.6,77.0,29.95,South,189,1.0,7.0,82,0.00,,,0.00,weatherlink.com 1.10,2013-07-21 14:42:00,
2013-07-21 09:58:00,84.2,76.0,29.95,SW,220,5.0,8.0,77,0.00,,,0.00,weatherlink.com 1.10,2013-07-21 14:58:00,
2013-07-21 10:13:00,85.0,76.0,29.94,South,190,6.0,7.0,74,0.00,,,0.00,weatherlink.com 1.10,2013-07-21 15:13:00,
2013-07-21 10:28:00,85.7,77.0,29.94,SSW,199,2.0,7.0,74,0.00,,,0.00,weatherlink.com 1.10,2013-07-21 15:28:00,
2013-07-21 10:43:00,86.5,76.0,29.94,South,183,4.0,8.0,71,0.00,,,0.00,weatherlink.com 1.10,2013-07-21 15:43:00,
2013-07-21 10:58:00,87.3,76.0,29.94,SSW,211,2.0,8.0,70,0.00,,,0.00,weatherlink.com 1.10,2013-07-21 15:58:00,
2013-07-21 11:13:00,88.1,75.0,29.94,SE,131,4.0,8.0,66,0.00,,,0.00,weatherlink.com 1.10,2013-07-21 16:13:00,
2013-07-21 11:28:00,89.3,75.0,29.94,South,176,4.0,7.0,63,0.00,,,0.00,weatherlink.com 1.10,2013-07-21 16:28:00,
2013-07-21 11:43:00,88.8,75.0,29.94,SSW,196,3.0,7.0,64,0.00,,,0.00,weatherlink.com 1.10,2013-07-21 16:43:00,
2013-07-21 11:58:00,89.2,76.0,29.94,South,180,5.0,6.0,66,0.00,,,0.00,weatherlink.com 1.10,2013-07-21 16:58:00,
2013-07-21 12:13:00,90.1,75.0,29.93,NW,317,3.0,7.0,61,0.00,,,0.00,weatherlink.com 1.10,2013-07-21 17:13:00,
2013-07-21 12:28:00,90.1,75.0,29.92,WNW,300,2.0,6.0,61,0.00,,,0.00,weatherlink.com 1.10,2013-07-21 17:28:00,
2013-07-21 12:43:00,91.2,76.0,29.92,West,273,1.0,7.0,62,0.00,,,0.00,weatherlink.com 1.10,2013-07-21 17:43:00,
2013-07-21 12:58:00,91.2,75.0,29.91,SSW,202,0.0,6.0,59,0.00,,,0.00,weatherlink.com 1.10,2013-07-21 17:58:00,
2013-07-21 13:13:00,91.0,75.0,29.91,SW,221,4.0,7.0,60,0.00,,,0.00,weatherlink.com 1.10,2013-07-21 18:13:00,
2013-07-21 13:28:00,89.4,76.0,29.91,NW,319,2.0,8.0,64,0.00,,,0.00,weatherlink.com 1.10,2013-07-21 18:28:00,
2013-07-21 13:43:00,88.6,75.0,29.91,NNE,32,1.0,4.0,64,0.00,,,0.00,weatherlink.com 1.10,2013-07-21 18:43:00,
2013-07-21 13:58:00,87.1,75.0,29.91,ESE,115,10.0,14.0,67,0.00,,,0.00,weatherlink.com 1.10,2013-07-21 18:58:00,
2013-07-21 14:13:00,83.5,76.0,29.91,ESE,109,0.0,9.0,78,0.00,,,0.00,weatherlink.com 1.10,2013-07-21 19:13:00,
2013-07-21 14:28:00,85.6,76.0,29.91,SSW,198,7.0,10.0,74,0.00,,,0.00,weatherlink.com 1.10,2013-07-21 19:28:00,
2013-07-21 14:43:00,87.4,77.0,29.91,SSW,205,3.0,8.0,72,0.00,,,0.00,weatherlink.com 1.10,2013-07-21 19:43:00,
2013-07-21 14:58:00,88.8,77.0,29.90,SSE,163,1.0,9.0,68,0.00,,,0.00,weatherlink.com 1.10,2013-07-21 19:58:00,
2013-07-21 15:13:00,89.5,78.0,29.90,WSW,241,4.0,10.0,69,0.00,,,0.00,weatherlink.com 1.10,2013-07-21 20:13:00,
2013-07-21 15:28:00,85.2,73.0,29.91,SSW,203,3.0,15.0,67,0.00,,,0.00,weatherlink.com 1.10,2013-07-21 20:28:00,
2013-07-21 15:43:00,81.1,73.0,29.92,SW,229,5.0,16.0,76,0.00,,,0.00,weatherlink.com 1.10,2013-07-21 20:43:00,
2013-07-21 15:58:00,79.4,74.0,29.92,South,191,0.0,6.0,84,0.01,,,0.01,weatherlink.com 1.10,2013-07-21 20:58:00,
2013-07-21 16:13:00,78.5,74.0,29.92,South,169,2.0,3.0,87,0.03,,,0.03,weatherlink.com 1.10,2013-07-21 21:13:00,
2013-07-21 16:28:00,78.2,75.0,29.91,SSW,199,3.0,7.0,90,0.03,,,0.03,weatherlink.com 1.10,2013-07-21 21:28:00,
2013-07-21 16:43:00,80.9,78.0,29.90,SE,135,1.0,6.0,91,0.03,,,0.03,weatherlink.com 1.10,2013-07-21 21:43:00,
2013-07-21 16:58:00,82.3,77.0,29.91,SSW,208,10.0,11.0,85,0.02,,,0.03,weatherlink.com 1.10,2013-07-21 21:58:00,
2013-07-21 17:13:00,82.4,76.0,29.91,SSW,199,4.0,11.0,82,0.00,,,0.03,weatherlink.com 1.10,2013-07-21 22:13:00,
2013-07-21 17:28:00,80.7,75.0,29.90,SSW,192,5.0,8.0,83,0.01,,,0.04,weatherlink.com 1.10,2013-07-21 22:28:00,
2013-07-21 17:43:00,80.2,75.0,29.89,SSW,202,0.0,6.0,85,0.01,,,0.04,weatherlink.com 1.10,2013-07-21 22:43:00,
2013-07-21 17:58:00,80.0,76.0,29.88,SSE,167,2.0,5.0,87,0.01,,,0.04,weatherlink.com 1.10,2013-07-21 22:58:00,
2013-07-21 18:13:00,80.0,76.0,29.88,SE,143,0.0,7.0,88,0.01,,,0.04,weatherlink.com 1.10,2013-07-21 23:13:00,
2013-07-21 18:28:00,80.3,76.0,29.88,SE,134,3.0,7.0,87,0.00,,,0.04,weatherlink.com 1.10,2013-07-21 23:28:00,
2013-07-21 18:43:00,81.1,77.0,29.89,SSW,208,0.0,5.0,86,0.00,,,0.04,weatherlink.com 1.10,2013-07-21 23:43:00,
2013-07-21 18:58:00,81.7,77.0,29.89,South,174,0.0,4.0,86,0.00,,,0.04,weatherlink.com 1.10,2013-07-21 23:58:00,
2013-07-21 19:13:00,82.0,77.0,29.89,ENE,71,0.0,3.0,85,0.00,,,0.04,weatherlink.com 1.10,2013-07-22 00:13:00,
2013-07-21 19:28:00,82.2,77.0,29.88,South,186,0.0,4.0,84,0.00,,,0.04,weatherlink.com 1.10,2013-07-22 00:28:00,
2013-07-21 19:43:00,82.2,77.0,29.88,South,186,4.0,4.0,83,0.00,,,0.04,weatherlink.com 1.10,2013-07-22 00:43:00,
2013-07-21 19:58:00,82.0,76.0,29.89,South,172,0.0,4.0,83,0.00,,,0.04,weatherlink.com 1.10,2013-07-22 00:58:00,
2013-07-21 20:13:00,81.6,76.0,29.90,SE,125,0.0,5.0,83,0.00,,,0.04,weatherlink.com 1.10,2013-07-22 01:13:00,
2013-07-21 20:28:00,81.3,76.0,29.90,SSW,194,0.0,2.0,84,0.00,,,0.04,weatherlink.com 1.10,2013-07-22 01:28:00,
2013-07-21 20:43:00,80.6,76.0,29.90,SSW,193,0.0,4.0,85,0.00,,,0.04,weatherlink.com 1.10,2013-07-22 01:43:00,
2013-07-21 20:58:00,79.9,76.0,29.90,South,187,2.0,4.0,87,0.00,,,0.04,weatherlink.com 1.10,2013-07-22 01:58:00,
2013-07-21 21:13:00,79.4,76.0,29.90,South,182,0.0,6.0,88,0.00,,,0.04,weatherlink.com 1.10,2013-07-22 02:13:00,
2013-07-21 21:28:00,78.9,75.0,29.90,South,173,2.0,4.0,88,0.00,,,0.04,weatherlink.com 1.10,2013-07-22 02:28:00,
2013-07-21 21:43:00,78.5,75.0,29.91,South,173,2.0,4.0,89,0.00,,,0.04,weatherlink.com 1.10,2013-07-22 02:43:00,
2013-07-21 21:58:00,78.3,75.0,29.91,SW,223,1.0,3.0,89,0.00,,,0.04,weatherlink.com 1.10,2013-07-22 02:58:00,
2013-07-21 22:13:00,77.9,75.0,29.91,SSW,193,3.0,3.0,89,0.00,,,0.04,weatherlink.com 1.10,2013-07-22 03:13:00,
2013-07-21 22:28:00,77.6,74.0,29.92,SW,217,2.0,5.0,89,0.00,,,0.04,weatherlink.com 1.10,2013-07-22 03:28:00,
2013-07-21 22:43:00,77.4,74.0,29.92,South,175,1.0,3.0,89,0.00,,,0.04,weatherlink.com 1.10,2013-07-22 03:43:00,
2013-07-21 22:58:00,77.3,74.0,29.92,South,175,0.0,6.0,89,0.00,,,0.04,weatherlink.com 1.10,2013-07-22 03:58:00,
2013-07-21 23:13:00,77.1,74.0,29.92,SSE,165,2.0,4.0,89,0.00,,,0.04,weatherlink.com 1.10,2013-07-22 04:13:00,
2013-07-21 23:28:00,76.9,74.0,29.93,SSW,195,2.0,4.0,89,0.00,,,0.04,weatherlink.com 1.10,2013-07-22 04:28:00,
2013-07-21 23:43:00,76.8,73.0,29.93,South,177,1.0,6.0,89,0.00,,,0.04,weatherlink.com 1.10,2013-07-22 04:43:00,
2013-07-21 23:58:00,76.7,73.0,29.94,South,185,2.0,3.0,89,0.00,,,0.04,weatherlink.com 1.10,2013-07-22 04:58:00,